Location: Fontevrault
(47.1823°N, 0.0493°E)
Time: 02:48:05
(UTC+00:00)

Cosmos 1459 Rocket - Pass Details

Date: 26 October 2021
Orbit: 936 x 1000 km, 83.0° (Epoch: 01 December)

Event Time Altitude Azimuth Distance (km) Brightness Sun altitude
Rises 20:48:17 0° 230° (SW) 3,650 7.2 -39.8°
Reaches altitude 10° 20:51:25 10° 245° (WSW) 2,697 6.6 -40.2°
Maximum altitude 20:56:04 22° 295° (WNW) 1,960 6.0 -40.9°
Drops below altitude 10° 21:00:43 10° 344° (NNW) 2,679 6.7 -41.6°
Sets 21:03:50 0° 360° (N) 3,621 7.3 -42.1°
